Time,TemperatureF,DewpointF,PressureIn,WindDirection,WindDirectionDegrees,WindSpeedMPH,WindSpeedGustMPH,Humidity,HourlyPrecipIn,Conditions,Clouds,dailyrainin,SoftwareType,DateUTC
2013-05-11 00:03:00,50.0,47.0,30.14,ESE,117,0.0,-999.0,90,-99.99,,,0.00,weatherlink.com 1.10,2013-05-11 07:03:00,
2013-05-11 00:18:00,49.7,47.0,30.14,ESE,117,0.0,-999.0,90,-99.99,,,0.00,weatherlink.com 1.10,2013-05-11 07:18:00,
2013-05-11 00:33:00,49.4,47.0,30.14,ESE,117,0.0,-999.0,91,-99.99,,,0.00,weatherlink.com 1.10,2013-05-11 07:33:00,
2013-05-11 00:48:00,49.0,47.0,30.14,ESE,117,0.0,-999.0,91,-99.99,,,0.00,weatherlink.com 1.10,2013-05-11 07:48:00,
2013-05-11 01:03:00,48.7,46.0,30.14,ESE,117,0.0,-999.0,91,-99.99,,,0.00,weatherlink.com 1.10,2013-05-11 08:03:00,
2013-05-11 01:18:00,48.7,46.0,30.13,ESE,118,0.0,-999.0,91,-99.99,,,0.00,weatherlink.com 1.10,2013-05-11 08:18:00,
2013-05-11 01:33:00,48.6,46.0,30.13,ESE,117,0.0,-999.0,91,-99.99,,,0.00,weatherlink.com 1.10,2013-05-11 08:33:00,
2013-05-11 01:48:00,48.5,46.0,30.13,ESE,117,0.0,-999.0,92,-99.99,,,0.00,weatherlink.com 1.10,2013-05-11 08:48:00,
2013-05-11 02:03:00,48.5,46.0,30.12,ESE,117,0.0,-999.0,92,-99.99,,,0.00,weatherlink.com 1.10,2013-05-11 09:03:00,
2013-05-11 02:18:00,48.3,46.0,30.12,ESE,117,0.0,-999.0,92,-99.99,,,0.00,weatherlink.com 1.10,2013-05-11 09:18:00,
2013-05-11 02:33:00,48.0,46.0,30.11,ESE,118,0.0,-999.0,92,-99.99,,,0.00,weatherlink.com 1.10,2013-05-11 09:33:00,
2013-05-11 02:48:00,47.9,46.0,30.11,ESE,117,0.0,-999.0,92,-99.99,,,0.00,weatherlink.com 1.10,2013-05-11 09:48:00,
2013-05-11 03:03:00,47.9,46.0,30.11,ESE,117,0.0,-999.0,92,-99.99,,,0.00,weatherlink.com 1.10,2013-05-11 10:03:00,
2013-05-11 03:18:00,48.0,46.0,30.11,ESE,118,0.0,-999.0,92,-99.99,,,0.00,weatherlink.com 1.10,2013-05-11 10:18:00,
2013-05-11 03:33:00,48.0,46.0,30.11,ESE,117,0.0,-999.0,92,-99.99,,,0.00,weatherlink.com 1.10,2013-05-11 10:33:00,
2013-05-11 03:48:00,47.8,46.0,30.10,ESE,118,0.0,-999.0,92,-99.99,,,0.00,weatherlink.com 1.10,2013-05-11 10:48:00,
2013-05-11 04:03:00,47.6,45.0,30.10,ESE,117,0.0,-999.0,92,-99.99,,,0.00,weatherlink.com 1.10,2013-05-11 11:03:00,
2013-05-11 04:18:00,47.8,46.0,30.10,ESE,118,0.0,-999.0,93,-99.99,,,0.00,weatherlink.com 1.10,2013-05-11 11:18:00,
2013-05-11 04:33:00,48.0,46.0,30.10,ESE,118,0.0,-999.0,93,-99.99,,,0.00,weatherlink.com 1.10,2013-05-11 11:33:00,
2013-05-11 04:48:00,48.1,46.0,30.10,ESE,118,0.0,-999.0,93,-99.99,,,0.00,weatherlink.com 1.10,2013-05-11 11:48:00,
2013-05-11 05:03:00,48.0,46.0,30.10,SW,225,0.0,-999.0,93,-99.99,,,0.00,weatherlink.com 1.10,2013-05-11 12:03:00,
2013-05-11 05:18:00,47.9,46.0,30.09,SW,225,0.0,-999.0,93,-99.99,,,0.00,weatherlink.com 1.10,2013-05-11 12:18:00,
2013-05-11 05:33:00,47.9,46.0,30.09,SW,225,0.0,-999.0,93,-99.99,,,0.00,weatherlink.com 1.10,2013-05-11 12:33:00,
2013-05-11 05:48:00,48.0,46.0,30.09,ESE,121,0.0,-999.0,93,-99.99,,,0.00,weatherlink.com 1.10,2013-05-11 12:48:00,
2013-05-11 06:03:00,48.1,46.0,30.09,ESE,121,0.0,-999.0,93,-99.99,,,0.00,weatherlink.com 1.10,2013-05-11 13:03:00,
2013-05-11 06:18:00,48.2,46.0,30.09,ESE,121,0.0,-999.0,93,-99.99,,,0.00,weatherlink.com 1.10,2013-05-11 13:18:00,
2013-05-11 06:33:00,48.3,46.0,30.09,ESE,121,0.0,-999.0,93,-99.99,,,0.00,weatherlink.com 1.10,2013-05-11 13:33:00,
2013-05-11 06:48:00,48.4,47.0,30.09,ESE,121,0.0,-999.0,93,-99.99,,,0.00,weatherlink.com 1.10,2013-05-11 13:48:00,
2013-05-11 07:03:00,48.5,47.0,30.10,ESE,121,0.0,-999.0,93,-99.99,,,0.00,weatherlink.com 1.10,2013-05-11 14:03:00,
2013-05-11 07:18:00,48.6,47.0,30.10,ESE,121,0.0,-999.0,93,-99.99,,,0.00,weatherlink.com 1.10,2013-05-11 14:18:00,
2013-05-11 07:33:00,48.8,47.0,30.10,ESE,121,0.0,-999.0,93,-99.99,,,0.00,weatherlink.com 1.10,2013-05-11 14:33:00,
2013-05-11 07:48:00,48.9,47.0,30.11,West,281,0.0,-999.0,93,-99.99,,,0.00,weatherlink.com 1.10,2013-05-11 14:48:00,
2013-05-11 08:03:00,49.0,47.0,30.11,West,281,0.0,-999.0,93,-99.99,,,0.00,weatherlink.com 1.10,2013-05-11 15:03:00,
2013-05-11 08:18:00,49.1,47.0,30.11,West,281,0.0,-999.0,93,-99.99,,,0.00,weatherlink.com 1.10,2013-05-11 15:18:00,
2013-05-11 08:33:00,49.4,48.0,30.11,WSW,237,0.0,-999.0,93,-99.99,,,0.00,weatherlink.com 1.10,2013-05-11 15:33:00,
2013-05-11 08:48:00,49.9,48.0,30.11,WSW,238,0.0,-999.0,94,-99.99,,,0.00,weatherlink.com 1.10,2013-05-11 15:48:00,
2013-05-11 09:03:00,50.0,48.0,30.12,WSW,238,0.0,-999.0,94,-99.99,,,0.00,weatherlink.com 1.10,2013-05-11 16:03:00,
2013-05-11 09:18:00,50.8,49.0,30.11,SW,227,0.0,-999.0,94,-99.99,,,0.00,weatherlink.com 1.10,2013-05-11 16:18:00,
2013-05-11 09:33:00,52.0,50.0,30.11,SW,227,0.0,-999.0,94,-99.99,,,0.00,weatherlink.com 1.10,2013-05-11 16:33:00,
2013-05-11 09:48:00,53.4,52.0,30.11,SW,226,0.0,-999.0,94,-99.99,,,0.00,weatherlink.com 1.10,2013-05-11 16:48:00,
2013-05-11 10:03:00,55.5,53.0,30.11,West,260,0.0,-999.0,92,-99.99,,,0.00,weatherlink.com 1.10,2013-05-11 17:03:00,
2013-05-11 10:18:00,58.7,55.0,30.10,ESE,109,0.0,-999.0,86,-99.99,,,0.00,weatherlink.com 1.10,2013-05-11 17:18:00,
2013-05-11 10:33:00,60.8,54.0,30.10,NE,46,0.0,-999.0,79,-99.99,,,0.00,weatherlink.com 1.10,2013-05-11 17:33:00,
2013-05-11 10:48:00,62.9,55.0,30.10,WNW,294,0.0,-999.0,75,-99.99,,,0.00,weatherlink.com 1.10,2013-05-11 17:48:00,
2013-05-11 11:03:00,63.5,55.0,30.10,WNW,300,0.0,-999.0,74,-99.99,,,0.00,weatherlink.com 1.10,2013-05-11 18:03:00,
2013-05-11 11:18:00,65.3,56.0,30.09,SSW,203,0.0,-999.0,72,-99.99,,,0.00,weatherlink.com 1.10,2013-05-11 18:18:00,
2013-05-11 11:33:00,67.8,56.0,30.09,East,94,0.0,-999.0,67,-99.99,,,0.00,weatherlink.com 1.10,2013-05-11 18:33:00,
2013-05-11 11:48:00,69.9,58.0,30.09,SE,126,0.0,-999.0,65,-99.99,,,0.00,weatherlink.com 1.10,2013-05-11 18:48:00,
2013-05-11 12:03:00,71.7,57.0,30.09,SW,229,0.0,-999.0,60,-99.99,,,0.00,weatherlink.com 1.10,2013-05-11 19:03:00,
2013-05-11 12:18:00,73.3,57.0,30.08,ENE,74,0.0,-999.0,57,-99.99,,,0.00,weatherlink.com 1.10,2013-05-11 19:18:00,
2013-05-11 12:33:00,74.6,58.0,30.08,SSW,198,0.0,-999.0,56,-99.99,,,0.00,weatherlink.com 1.10,2013-05-11 19:33:00,
2013-05-11 12:48:00,75.9,59.0,30.08,SSW,209,0.0,-999.0,56,-99.99,,,0.00,weatherlink.com 1.10,2013-05-11 19:48:00,
2013-05-11 13:03:00,77.1,61.0,30.08,East,90,0.0,-999.0,57,-99.99,,,0.00,weatherlink.com 1.10,2013-05-11 20:03:00,
2013-05-11 13:19:00,77.7,62.0,30.06,South,174,0.0,-999.0,59,-99.99,,,0.00,weatherlink.com 1.10,2013-05-11 20:19:00,
2013-05-11 13:34:00,78.2,61.0,30.07,West,276,0.0,-999.0,56,-99.99,,,0.00,weatherlink.com 1.10,2013-05-11 20:34:00,
2013-05-11 13:49:00,78.1,61.0,30.07,SW,229,0.0,-999.0,56,-99.99,,,0.00,weatherlink.com 1.10,2013-05-11 20:49:00,
2013-05-11 14:04:00,78.2,60.0,30.06,WSW,258,0.0,-999.0,54,-99.99,,,0.00,weatherlink.com 1.10,2013-05-11 21:04:00,
2013-05-11 14:19:00,78.2,60.0,30.06,SSE,161,0.0,-999.0,54,-99.99,,,0.00,weatherlink.com 1.10,2013-05-11 21:19:00,
2013-05-11 14:34:00,78.0,59.0,30.06,South,187,0.0,-999.0,53,-99.99,,,0.00,weatherlink.com 1.10,2013-05-11 21:34:00,
2013-05-11 14:49:00,78.8,59.0,30.06,SSW,192,0.0,-999.0,51,-99.99,,,0.00,weatherlink.com 1.10,2013-05-11 21:49:00,
2013-05-11 15:04:00,79.1,60.0,30.06,SW,225,0.0,-999.0,52,-99.99,,,0.00,weatherlink.com 1.10,2013-05-11 22:04:00,
2013-05-11 15:19:00,78.3,60.0,30.05,SSW,213,0.0,-999.0,53,-99.99,,,0.00,weatherlink.com 1.10,2013-05-11 22:19:00,
2013-05-11 15:34:00,77.9,61.0,30.05,South,171,0.0,-999.0,56,-99.99,,,0.00,weatherlink.com 1.10,2013-05-11 22:34:00,
2013-05-11 15:49:00,78.9,61.0,30.05,WSW,240,0.0,-999.0,54,-99.99,,,0.00,weatherlink.com 1.10,2013-05-11 22:49:00,
2013-05-11 16:04:00,78.9,61.0,30.04,South,180,0.0,-999.0,54,-99.99,,,0.00,weatherlink.com 1.10,2013-05-11 23:04:00,
2013-05-11 16:19:00,79.5,60.0,30.03,SSE,153,0.0,-999.0,51,-99.99,,,0.00,weatherlink.com 1.10,2013-05-11 23:19:00,
2013-05-11 16:34:00,79.3,60.0,30.04,South,187,0.0,-999.0,51,-99.99,,,0.00,weatherlink.com 1.10,2013-05-11 23:34:00,
2013-05-11 16:49:00,78.6,59.0,30.04,SSE,159,0.0,-999.0,51,-99.99,,,0.00,weatherlink.com 1.10,2013-05-11 23:49:00,
2013-05-11 17:04:00,76.4,57.0,30.04,South,190,0.0,-999.0,52,-99.99,,,0.00,weatherlink.com 1.10,2013-05-12 00:04:00,
2013-05-11 17:19:00,75.2,58.0,30.05,South,171,0.0,-999.0,55,-99.99,,,0.00,weatherlink.com 1.10,2013-05-12 00:19:00,
2013-05-11 17:34:00,72.5,57.0,30.05,SSW,210,0.0,-999.0,58,-99.99,,,0.00,weatherlink.com 1.10,2013-05-12 00:34:00,
2013-05-11 17:49:00,71.6,56.0,30.05,SE,132,0.0,-999.0,59,-99.99,,,0.00,weatherlink.com 1.10,2013-05-12 00:49:00,
2013-05-11 18:04:00,69.8,56.0,30.05,South,182,0.0,-999.0,62,-99.99,,,0.00,weatherlink.com 1.10,2013-05-12 01:04:00,
2013-05-11 18:19:00,67.3,55.0,30.05,SSW,207,0.0,-999.0,65,-99.99,,,0.00,weatherlink.com 1.10,2013-05-12 01:19:00,
2013-05-11 18:34:00,65.3,54.0,30.05,South,177,0.0,-999.0,67,-99.99,,,0.00,weatherlink.com 1.10,2013-05-12 01:34:00,
2013-05-11 18:49:00,63.3,53.0,30.05,SE,126,0.0,-999.0,70,-99.99,,,0.00,weatherlink.com 1.10,2013-05-12 01:49:00,
2013-05-11 19:05:00,62.3,53.0,30.05,South,169,0.0,-999.0,72,-99.99,,,0.00,weatherlink.com 1.10,2013-05-12 02:05:00,
2013-05-11 19:20:00,62.0,53.0,30.05,SE,139,0.0,-999.0,73,-99.99,,,0.00,weatherlink.com 1.10,2013-05-12 02:20:00,
2013-05-11 19:35:00,61.5,53.0,30.05,ESE,113,0.0,-999.0,73,-99.99,,,0.00,weatherlink.com 1.10,2013-05-12 02:35:00,
2013-05-11 19:50:00,58.8,51.0,30.06,ESE,120,0.0,-999.0,76,-99.99,,,0.00,weatherlink.com 1.10,2013-05-12 02:50:00,
2013-05-11 20:05:00,56.8,50.0,30.06,ESE,107,0.0,-999.0,79,-99.99,,,0.00,weatherlink.com 1.10,2013-05-12 03:05:00,
2013-05-11 20:20:00,55.8,50.0,30.06,ESE,121,0.0,-999.0,82,-99.99,,,0.00,weatherlink.com 1.10,2013-05-12 03:20:00,
2013-05-11 20:35:00,55.0,50.0,30.07,SSW,192,0.0,-999.0,84,-99.99,,,0.00,weatherlink.com 1.10,2013-05-12 03:35:00,
2013-05-11 20:50:00,54.4,50.0,30.07,SE,136,0.0,-999.0,85,-99.99,,,0.00,weatherlink.com 1.10,2013-05-12 03:50:00,
2013-05-11 21:05:00,53.8,50.0,30.08,SE,133,0.0,-999.0,86,-99.99,,,0.00,weatherlink.com 1.10,2013-05-12 04:05:00,
2013-05-11 21:20:00,53.1,49.0,30.08,SSW,205,0.0,-999.0,87,-99.99,,,0.00,weatherlink.com 1.10,2013-05-12 04:20:00,
2013-05-11 21:35:00,52.4,49.0,30.09,ESE,122,0.0,-999.0,88,-99.99,,,0.00,weatherlink.com 1.10,2013-05-12 04:35:00,
2013-05-11 21:50:00,51.7,48.0,30.09,SE,136,0.0,-999.0,88,-99.99,,,0.00,weatherlink.com 1.10,2013-05-12 04:50:00,
2013-05-11 22:05:00,50.9,48.0,30.10,SSE,155,0.0,-999.0,89,-99.99,,,0.00,weatherlink.com 1.10,2013-05-12 05:05:00,
2013-05-11 22:20:00,50.3,48.0,30.10,SE,139,0.0,-999.0,90,-99.99,,,0.00,weatherlink.com 1.10,2013-05-12 05:20:00,
2013-05-11 22:35:00,50.0,47.0,30.10,SE,132,0.0,-999.0,90,-99.99,,,0.00,weatherlink.com 1.10,2013-05-12 05:35:00,
2013-05-11 22:50:00,49.8,47.0,30.10,SSE,148,0.0,-999.0,91,-99.99,,,0.00,weatherlink.com 1.10,2013-05-12 05:50:00,
2013-05-11 23:05:00,49.7,47.0,30.10,SE,134,0.0,-999.0,91,-99.99,,,0.00,weatherlink.com 1.10,2013-05-12 06:05:00,
2013-05-11 23:20:00,49.5,47.0,30.11,ESE,122,0.0,-999.0,91,-99.99,,,0.00,weatherlink.com 1.10,2013-05-12 06:20:00,
2013-05-11 23:35:00,49.4,47.0,30.11,SSE,155,0.0,-999.0,91,-99.99,,,0.00,weatherlink.com 1.10,2013-05-12 06:35:00,
2013-05-11 23:50:00,49.3,47.0,30.11,SSE,153,0.0,-999.0,91,-99.99,,,0.00,weatherlink.com 1.10,2013-05-12 06:50:00,